When you browse on this site, cookies collect data to enhance your experience and personalize the content and advertising you see.
Visit our Privacy Policy to learn more. By continuing to use the site, you agree to this use of cookies and data.
  • In Latvia
  • List of Countries
  • For 7 days
  • Water Temperature
  • Satellite Maps
  • Weather Map
  • Weather Widgets
  • user-avatar
    Login

    Hourly Weather Sankt Polten

    Today, 20 February, Wednesday

    Time Temperature Precipitation Wind Pressure Humidity
    00:00 +6°C° 0.1 mm 2 mps 739 mmHg 89%
    01:00 +7°C° 0 mm 1 mps 739 mmHg 91%
    02:00 +6°C° 0 mm 1 mps 739 mmHg 92%
    03:00 +6°C° 0 mm 1 mps 740 mmHg 94%
    04:00 +6°C° 0 mm 1 mps 740 mmHg 95%
    05:00 +5°C° 0 mm 1 mps 740 mmHg 96%
    06:00 +5°C° 0 mm 1 mps 740 mmHg 96%
    07:00 +4°C° 0 mm 1 mps 740 mmHg 96%
    08:00 +5°C° 0 mm 2 mps 741 mmHg 90%
    09:00 +6°C° 0 mm 2 mps 741 mmHg 85%
    10:00 +7°C° 0 mm 2 mps 741 mmHg 79%
    11:00 +8°C° 0 mm 2 mps 741 mmHg 75%
    12:00 +9°C° 0 mm 3 mps 741 mmHg 72%
    13:00 +10°C° 0 mm 3 mps 741 mmHg 68%
    14:00 +9°C° 0 mm 3 mps 741 mmHg 70%
    15:00 +9°C° 0 mm 3 mps 741 mmHg 72%
    16:00 +9°C° 0 mm 3 mps 741 mmHg 75%
    17:00 +8°C° 0 mm 2 mps 741 mmHg 80%
    18:00 +7°C° 0 mm 2 mps 741 mmHg 86%
    19:00 +5°C° 0 mm 2 mps 742 mmHg 91%
    20:00 +5°C° 0 mm 2 mps 742 mmHg 91%
    21:00 +6°C° 0 mm 1 mps 742 mmHg 92%
    22:00 +6°C° 0 mm 1 mps 743 mmHg 92%
    23:00 +5°C° 0 mm 1 mps 743 mmHg 92%

    Tomorrow, 21 February, Thursday

    Time Temperature Precipitation Wind Pressure Humidity
    00:00 +5°C° 0 mm 1 mps 743 mmHg 92%
    01:00 +5°C° 0 mm 1 mps 743 mmHg 92%
    02:00 +5°C° 0 mm 1 mps 743 mmHg 92%
    03:00 +5°C° 0 mm 1 mps 743 mmHg 93%
    04:00 +5°C° 0 mm 1 mps 743 mmHg 93%
    05:00 +5°C° 0 mm 1 mps 743 mmHg 93%
    06:00 +5°C° 0 mm 1 mps 743 mmHg 93%
    07:00 +5°C° 0 mm 1 mps 744 mmHg 94%
    08:00 +5°C° 0 mm 2 mps 744 mmHg 89%
    09:00 +7°C° 0 mm 2 mps 744 mmHg 84%
    10:00 +8°C° 0 mm 3 mps 744 mmHg 79%
    11:00 +9°C° 0 mm 3 mps 744 mmHg 75%
    12:00 +10°C° 0 mm 4 mps 743 mmHg 71%
    13:00 +11°C° 0 mm 4 mps 743 mmHg 68%
    14:00 +11°C° 0 mm 4 mps 743 mmHg 69%
    15:00 +10°C° 0 mm 4 mps 742 mmHg 70%
    16:00 +10°C° 0 mm 4 mps 742 mmHg 71%
    17:00 +8°C° 0 mm 4 mps 742 mmHg 75%
    18:00 +8°C° 0 mm 3 mps 742 mmHg 79%
    19:00 +7°C° 0 mm 3 mps 743 mmHg 83%
    20:00 +7°C° 0 mm 3 mps 743 mmHg 83%
    21:00 +7°C° 0 mm 3 mps 743 mmHg 83%
    22:00 +6°C° 0 mm 4 mps 743 mmHg 84%
    23:00 +6°C° 0 mm 4 mps 743 mmHg 84%

    Day after tomorrow, 22 February, Friday

    Time Temperature Precipitation Wind Pressure Humidity
    00:00 +6°C° 0 mm 5 mps 743 mmHg 85%
    01:00 +6°C° 0 mm 5 mps 743 mmHg 85%
    02:00 +6°C° 0.1 mm 5 mps 743 mmHg 85%
    03:00 +5°C° 0.1 mm 6 mps 743 mmHg 85%
    04:00 +5°C° 0.1 mm 6 mps 743 mmHg 85%
    05:00 +5°C° 0.2 mm 6 mps 743 mmHg 85%
    06:00 +5°C° 0.2 mm 6 mps 743 mmHg 85%
    07:00 +5°C° 0.2 mm 6 mps 742 mmHg 86%
    08:00 +5°C° 0.4 mm 6 mps 743 mmHg 85%
    09:00 +7°C° 0.4 mm 6 mps 743 mmHg 84%
    10:00 +7°C° 0.4 mm 6 mps 743 mmHg 83%
    11:00 +7°C° 0.3 mm 6 mps 743 mmHg 81%
    12:00 +7°C° 0.3 mm 6 mps 743 mmHg 79%
    13:00 +8°C° 0.3 mm 6 mps 744 mmHg 76%
    14:00 +7°C° 0.4 mm 5 mps 744 mmHg 77%
    15:00 +7°C° 0.4 mm 4 mps 744 mmHg 79%
    16:00 +8°C° 0.4 mm 3 mps 745 mmHg 80%
    17:00 +7°C° 0.1 mm 3 mps 745 mmHg 81%
    18:00 +5°C° 0.1 mm 3 mps 746 mmHg 82%
    19:00 +5°C° 0.1 mm 2 mps 747 mmHg 82%
    20:00 +4°C° 0 mm 2 mps 748 mmHg 82%
    21:00 +2°C° 0 mm 2 mps 748 mmHg 83%
    22:00 +2°C° 0 mm 1 mps 749 mmHg 83%
    23:00 +1°C° 0 mm 1 mps 749 mmHg 82%

    23 February, Saturday

    Time Temperature Precipitation Wind Pressure Humidity
    00:00 +1°C° 0 mm 1 mps 749 mmHg 81%
    01:00 0°C° 0 mm 1 mps 750 mmHg 80%
    02:00 0°C° 0 mm 1 mps 749 mmHg 78%
    03:00 -1°C° 0 mm 0 mps 749 mmHg 76%
    04:00 -1°C° 0 mm 0 mps 749 mmHg 75%
    05:00 0°C° 0 mm 1 mps 750 mmHg 73%
    06:00 -1°C° 0 mm 1 mps 750 mmHg 72%
    07:00 -1°C° 0 mm 1 mps 750 mmHg 70%
    08:00 0°C° 0 mm 1 mps 751 mmHg 62%
    09:00 +1°C° 0 mm 1 mps 751 mmHg 54%
    10:00 +1°C° 0 mm 2 mps 751 mmHg 46%
    11:00 +2°C° 0 mm 2 mps 751 mmHg 42%
    12:00 +2°C° 0 mm 2 mps 751 mmHg 38%
    13:00 +3°C° 0 mm 2 mps 751 mmHg 33%
    14:00 +3°C° 0 mm 2 mps 751 mmHg 33%
    15:00 +3°C° 0 mm 2 mps 750 mmHg 33%
    16:00 +2°C° 0 mm 2 mps 750 mmHg 33%
    17:00 +2°C° 0 mm 1 mps 750 mmHg 38%
    18:00 +1°C° 0 mm 1 mps 750 mmHg 42%
    19:00 0°C° 0 mm 1 mps 751 mmHg 47%
    20:00 0°C° 0 mm 1 mps 751 mmHg 46%
    21:00 0°C° 0 mm 1 mps 751 mmHg 45%
    22:00 0°C° 0 mm 1 mps 751 mmHg 44%
    23:00 -1°C° 0 mm 1 mps 751 mmHg 44%

    24 February, Sunday

    Time Temperature Precipitation Wind Pressure Humidity
    00:00 -1°C° 0 mm 1 mps 751 mmHg 44%
    01:00 -1°C° 0 mm 1 mps 751 mmHg 44%
    02:00 -1°C° 0 mm 1 mps 751 mmHg 43%
    03:00 -1°C° 0 mm 1 mps 750 mmHg 42%
    04:00 -2°C° 0 mm 1 mps 750 mmHg 42%
    05:00 -2°C° 0 mm 1 mps 750 mmHg 40%
    06:00 -2°C° 0 mm 1 mps 750 mmHg 39%
    07:00 -2°C° 0 mm 1 mps 750 mmHg 38%
    08:00 -1°C° 0 mm 0 mps 750 mmHg 32%
    09:00 +1°C° 0 mm 0 mps 750 mmHg 27%
    10:00 +3°C° 0 mm 0 mps 750 mmHg 21%
    11:00 +5°C° 0 mm 1 mps 750 mmHg 22%
    12:00 +6°C° 0 mm 1 mps 749 mmHg 23%
    13:00 +7°C° 0 mm 1 mps 749 mmHg 24%
    14:00 +7°C° 0 mm 1 mps 749 mmHg 29%
    15:00 +7°C° 0 mm 1 mps 748 mmHg 34%
    16:00 +5°C° 0 mm 0 mps 748 mmHg 39%
    17:00 +4°C° 0 mm 0 mps 748 mmHg 43%
    18:00 +2°C° 0 mm 0 mps 749 mmHg 48%
    19:00 0°C° 0 mm 0 mps 749 mmHg 52%
    20:00 +1°C° 0 mm 1 mps 749 mmHg 54%
    21:00 +1°C° 0 mm 1 mps 750 mmHg 55%
    22:00 +1°C° 0 mm 1 mps 750 mmHg 57%
    23:00 +1°C° 0 mm 1 mps 750 mmHg 58%

    25 February, Monday

    Time Temperature Precipitation Wind Pressure Humidity
    00:00 +1°C° 0 mm 1 mps 750 mmHg 59%
    01:00 0°C° 0 mm 1 mps 750 mmHg 60%
    02:00 0°C° 0 mm 1 mps 749 mmHg 60%
    03:00 0°C° 0 mm 1 mps 749 mmHg 61%
    04:00 0°C° 0 mm 1 mps 749 mmHg 61%
    05:00 0°C° 0 mm 1 mps 749 mmHg 62%
    06:00 0°C° 0 mm 1 mps 749 mmHg 62%
    07:00 0°C° 0 mm 1 mps 749 mmHg 63%
    08:00 +2°C° 0 mm 1 mps 749 mmHg 57%
    09:00 +4°C° 0 mm 1 mps 749 mmHg 52%
    10:00 +6°C° 0 mm 1 mps 749 mmHg 46%
    11:00 +7°C° 0 mm 1 mps 749 mmHg 47%
    12:00 +8°C° 0 mm 1 mps 749 mmHg 47%
    13:00 +9°C° 0 mm 1 mps 748 mmHg 48%
    14:00 +9°C° 0 mm 1 mps 748 mmHg 52%
    15:00 +8°C° 0 mm 1 mps 748 mmHg 55%
    16:00 +8°C° 0 mm 1 mps 747 mmHg 59%
    17:00 +7°C° 0 mm 1 mps 748 mmHg 64%
    18:00 +5°C° 0 mm 1 mps 748 mmHg 70%
    19:00 +4°C° 0 mm 1 mps 748 mmHg 75%
    20:00 +3°C° 0 mm 1 mps 748 mmHg 77%
    21:00 +3°C° 0 mm 1 mps 748 mmHg 79%
    22:00 +3°C° 0 mm 1 mps 748 mmHg 81%
    23:00 +2°C° 0 mm 1 mps 748 mmHg 82%
    Show more